TIMATION 2

Satellite information

Favourite Embed

Satellite Type and Status

PAYLOADIN ORBIT

Key statistics

Satellite TIMATION 2 at a glance.

Uptime

20307

Days in orbit

Revolutions

≈ 14.0

Per day

Orbit

LEO

Low Earth Orbit

Inclination

70.0

Latest

Satellite identification and parameters

Extended collection of information and parameters for TIMATION 2.

Object identification

Identified? True

Debris? False

Object name: TIMATION 2

International designator: 1969-082C

Object number (NORAD): 4257

Object ID (CCSDS): 4257

Country: UNITED STATES OF AMERICA (US)

Current information (Y/N): Y

RCS size: MEDIUM

Orbital parameters

Period: 103.131 minutes

Inclination: 70.0152 deg

SMA: 7284.813 km

Apoapsis: 923.35 km

Periapsis: 890.006 km

RAAN: 244.5799 deg

Eccentricy: 0.0022886

Argument of periapsis: 292.3196 deg

Mean anomaly: 174.0294 deg

Mean motion: 13.96288596 rev/day

Mean motion (dot): 0.0000008 rev/day2

B* drag term: 0.00009632 1/REarth

Two-line elements (TLE)

Creation date: May 5, 2025, 2:11 a.m.

Reference frame: TEME

Reference center: EARTH

Epoch: May 4, 2025, 5:54 p.m. UTC

TLE line 0: 0 TIMATION 2

TLE line 1: 1 04257U 69082C 25124.74600881 .00000080 00000-0 96320-4 0 9993

TLE line 2: 2 04257 70.0152 244.5799 0022886 292.3196 174.0294 13.96288596829635

Live tracking on map

Real-time ground track for satellite TIMATION 2.

In-orbit conjunctions

A list of the most updated potential collisions computed for object TIMATION 2.

Target Orbit TCA Probability of collision Miss distance Type
DELTA 1 DEB LEO 2025-04-04 13:26:39 0.0001036965 323.0 (m) DEBRIS

Associated space launch

Poppy was the follow-on ELINT system, which succeeded the Grab ELINT satellite system.

TIMATION 2 was lifted into orbit during the mission ‘Thorad SLV-2G Agena D | Poppy 8A,B,C,D’, on board a Thorad SLV-2G Agena D space rocket.

The launch took place on Sept. 30, 1969, 1:40 p.m. from Space Launch Complex 1W.

For more information about the launch, click the button.

Launch to space Thorad SLV-2G Agena D | Poppy 8A,B,C,D
Thorad SLV-2G Agena D | Poppy 8A,B,C,D

Agency: N/A

Status: Launch Successful

Launch date: Sept. 30, 1969, 1:40 p.m. UTC

Rocket: Thorad SLV-2G Agena D

Launch pad: Space Launch Complex 1W

Location: Vandenberg SFB, CA, USA

...

Latest news about this satellite

There are no fresh news available about this satellite. Check back as we update our databases every day.


Newsletter sign-up

Weekly statistics, charts and insights to help you stay on top of the space industry.